EW4529 Weather Reports


time (UTC)temp
C
wind
direction
speed
KPH
gust
KPH
rain 1hr
cm
rain 24hr
cm
rain mn
cm
humidity
%
barometer
mb
20260505122325 18 143 1.6 9.7 0.00 0.00 0.00 62 1011.6
20260505121314 18 150 3.2 9.7 0.00 0.00 0.00 64 1011.6
20260505120315 17 148 3.2 8.0 0.00 0.00 0.00 66 1011.5
20260505115310 17 181 0.0 6.4 0.00 0.00 0.00 69 1011.6
20260505114325 16 181 1.6 8.0 0.00 0.00 0.00 72 1011.5
20260505113314 16 137 0.0 8.0 0.00 0.00 0.00 74 1011.4
20260505112309 16 223 0.0 4.8 0.00 0.00 0.00 76 1011.3
20260505111330 15 160 0.0 4.8 0.00 0.00 0.00 77 1011.2
20260505110321 15 150 0.0 4.8 0.00 0.00 0.00 79 1011.1
20260505101324 15 224 0.0 1.6 0.00 0.00 0.00 79 1011.0
20260505100323 15 193 0.0 4.8 0.00 0.00 0.00 78 1010.9
20260505095311 15 145 0.0 4.8 0.00 0.00 0.00 77 1010.7
20260505094333 15 135 0.0 3.2 0.00 0.00 0.00 76 1010.7
20260505093330 15 128 0.0 6.4 0.00 0.00 0.00 76 1010.7
20260505092325 15 308 0.0 6.4 0.00 0.00 0.00 76 1010.6
20260505091321 15 16 0.0 6.4 0.00 0.00 0.00 76 1010.7
20260505090308 15 140 0.0 1.6 0.00 0.00 0.00 76 1010.6
20260505085309 15 131 0.0 3.2 0.00 0.00 0.00 76 1010.6
20260505084322 15 11 0.0 1.6 0.00 0.00 0.00 75 1010.7
20260505083319 15 130 0.0 1.6 0.00 0.00 0.00 75 1010.7
20260505082332 15 96 0.0 3.2 0.00 0.00 0.00 74 1010.6
20260505081322 15 143 0.0 8.0 0.00 0.00 0.00 74 1010.3
20260505080315 15 240 0.0 6.4 0.00 0.00 0.00 75 1010.4
20260505075321 15 86 0.0 1.6 0.00 0.00 0.00 75 1010.5
20260505074318 15 126 0.0 1.6 0.00 0.00 0.00 74 1010.6
20260505073327 15 309 0.0 3.2 0.00 0.00 0.00 74 1010.7
20260505072324 15 122 1.6 4.8 0.00 0.00 0.00 73 1010.6
20260505071322 15 170 0.0 6.4 0.00 0.00 0.00 74 1010.6
20260505070335 15 138 0.0 11.3 0.00 0.00 0.00 74 1010.5
20260505065325 15 94 0.0 3.2 0.00 0.00 0.00 75 1010.5
20260505064341 15 86 0.0 1.6 0.00 0.00 0.00 75 1010.5
20260505063311 14 13 0.0 1.6 0.00 0.00 0.00 75 1010.4
20260505062322 14 131 0.0 1.6 0.00 0.00 0.00 75 1010.5
20260505061319 14 115 0.0 6.4 0.00 0.00 0.00 74 1010.6
20260505060328 15 105 0.0 3.2 0.00 0.00 0.00 74 1010.6
20260505055312 15 154 0.0 1.6 0.00 0.00 0.00 72 1010.7
20260505054335 15 346 0.0 6.4 0.00 0.00 0.00 72 1010.7
20260505053318 15 337 0.0 4.8 0.00 0.00 0.00 71 1010.7
20260505052314 15 328 0.0 6.4 0.00 0.00 0.00 71 1010.7
20260505051328 15 128 0.0 9.7 0.00 0.00 0.00 70 1010.8
20260505050341 15 111 0.0 1.6 0.00 0.00 0.00 70 1010.8
20260505041310 16 102 0.0 4.8 0.00 0.00 0.00 65 1010.8
20260505040324 16 126 0.0 3.2 0.00 0.00 0.00 63 1010.7
20260505035311 16 176 0.0 3.2 0.00 0.00 0.00 62 1010.6
20260505034328 16 135 0.0 8.0 0.00 0.00 0.00 61 1010.7
20260505033323 16 320 0.0 4.8 0.00 0.00 0.00 59 1010.7
20260505032334 16 161 0.0 4.8 0.00 0.00 0.00 57 1010.8
20260505031320 16 32 0.0 6.4 0.00 0.00 0.00 55 1010.8
20260505030334 17 333 0.0 3.2 0.00 0.00 0.00 54 1010.7
20260505025357 17 123 1.6 9.7 0.00 0.00 0.00 53 1010.8
20260505024323 17 158 0.0 9.7 0.00 0.00 0.00 52 1010.9
20260505023319 17 122 0.0 11.3 0.00 0.00 0.00 52 1010.9
20260505022312 17 219 0.0 8.0 0.00 0.00 0.00 53 1011.0
20260505021328 17 130 0.0 4.8 0.00 0.00 0.00 53 1010.9
20260505020315 17 96 0.0 4.8 0.00 0.00 0.00 54 1010.9
20260505015333 17 169 0.0 11.3 0.00 0.00 0.00 53 1010.8
20260505014311 17 121 0.0 9.7 0.00 0.00 0.00 53 1010.7
20260505013324 17 167 0.0 6.4 0.00 0.00 0.00 53 1010.7
20260505012317 17 139 0.0 3.2 0.00 0.00 0.00 52 1010.8
20260505011315 17 322 0.0 4.8 0.00 0.00 0.00 52 1010.6
20260505010319 17 150 1.6 6.4 0.00 0.00 0.00 51 1010.5
20260505005314 17 131 0.0 4.8 0.00 0.00 0.00 52 1010.5
20260505004310 17 105 0.0 1.6 0.00 0.00 0.00 51 1010.3
20260505003311 18 108 0.0 1.6 0.00 0.00 0.00 48 1010.2
20260505002344 18 320 0.0 4.8 0.00 0.00 0.00 47 1010.1
20260505001324 18 98 0.0 1.6 0.00 0.00 0.00 46 1010.1
20260505000315 19 117 0.0 3.2 0.00 0.00 0.00 43 1010.0
20260504235312 20 131 0.0 3.2 0.00 0.00 0.00 42 1010.0
20260504234356 20 111 0.0 3.2 0.00 0.00 0.00 41 1009.9
20260504233325 20 167 1.6 6.4 0.00 0.00 0.00 40 1009.9
20260504232322 20 147 0.0 4.8 0.00 0.00 0.00 40 1009.8
20260504231319 21 133 0.0 3.2 0.00 0.00 0.00 39 1009.8
20260504230309 21 146 0.0 11.3 0.00 0.00 0.00 38 1009.9
20260504225326 21 130 1.6 11.3 0.00 0.00 0.00 38 1009.9
20260504224324 21 359 0.0 8.0 0.00 0.00 0.00 37 1009.9
20260504223315 21 160 0.0 12.9 0.00 0.00 0.00 37 1009.9
20260504222312 21 113 3.2 16.1 0.00 0.00 0.00 36 1009.9
20260504221335 22 135 0.0 11.3 0.00 0.00 0.00 37 1009.8
20260504220324 22 177 3.2 12.9 0.00 0.00 0.00 35 1009.9
20260504215322 22 58 0.0 14.5 0.00 0.00 0.00 35 1010.0
20260504214318 22 264 0.0 6.4 0.00 0.00 0.00 34 1010.1
20260504213310 23 132 0.0 16.1 0.00 0.00 0.00 33 1010.1
20260504212312 23 229 0.0 9.7 0.00 0.00 0.00 32 1010.1
20260504211308 23 195 1.6 8.0 0.00 0.00 0.00 31 1010.1
20260504210325 23 120 3.2 8.0 0.00 0.00 0.00 32 1010.0
20260504205325 24 167 1.6 11.3 0.00 0.00 0.00 32 1010.1
20260504204325 23 47 1.6 16.1 0.00 0.00 0.00 31 1010.1
20260504203319 23 21 3.2 9.7 0.00 0.00 0.00 33 1010.0
20260504202319 23 282 4.8 17.7 0.00 0.00 0.00 32 1010.2
20260504201319 23 293 3.2 14.5 0.00 0.00 0.00 31 1010.2
20260504200314 24 304 0.0 11.3 0.00 0.00 0.00 33 1010.3
20260504195314 23 115 3.2 16.1 0.00 0.00 0.00 31 1010.4
20260504194314 23 122 3.2 12.9 0.00 0.00 0.00 30 1010.4
20260504193335 23 333 1.6 12.9 0.00 0.00 0.00 32 1010.5
20260504192312 23 276 4.8 12.9 0.00 0.00 0.00 30 1010.7
20260504191310 24 328 3.2 12.9 0.00 0.00 0.00 30 1010.7
20260504190331 23 137 3.2 14.5 0.00 0.00 0.00 31 1010.8
20260504185313 23 73 0.0 14.5 0.00 0.00 0.00 32 1011.0
20260504184334 23 296 1.6 9.7 0.00 0.00 0.00 32 1011.2
20260504183334 23 359 3.2 11.3 0.00 0.00 0.00 29 1011.3
20260504182323 23 114 1.6 12.9 0.00 0.00 0.00 32 1011.6
20260504181326 23 106 4.8 9.7 0.00 0.00 0.00 29 1011.7
20260504180308 23 260 1.6 9.7 0.00 0.00 0.00 29 1011.9
20260504175310 23 119 1.6 9.7 0.00 0.00 0.00 29 1012.0
20260504174332 23 123 1.6 11.3 0.00 0.00 0.00 30 1012.1
20260504173312 23 28 1.6 12.9 0.00 0.00 0.00 32 1012.2
20260504172311 23 160 3.2 8.0 0.00 0.00 0.00 31 1012.3
20260504171331 22 316 3.2 14.5 0.00 0.00 0.00 32 1012.4
20260504170326 22 156 3.2 12.9 0.00 0.00 0.00 30 1012.6
20260504160322 22 49 1.6 11.3 0.00 0.00 0.00 33 1013.4
20260504150320 20 250 0.0 12.9 0.00 0.00 0.00 41 1013.9
20260504141318 17 56 1.6 6.4 0.00 0.00 0.00 56 1014.0
20260504140314 17 269 1.6 12.9 0.00 0.00 0.00 55 1014.2
20260504130317 15 248 3.2 8.0 0.00 0.00 0.00 63 1014.6